Location: Leipzig
(51.3392°N, 12.3528°E)
Time: 20:28:37
(UTC+01:00)

ISS - Pass Details

Date: 05 January 2018
Orbit: 402 x 407 km, 51.6° (Epoch: 20 January)

Event Time Altitude Azimuth Distance (km) Brightness Sun altitude
Exits shadow 06:03:57 82° 284° (WNW) 416 -4.0 -19.3°
Maximum altitude 06:04:04 87° 352° (N) 413 -3.9 -19.3°
Drops below altitude 10° 06:07:23 10° 83° (E) 1,471 0.1 -18.8°
Sets 06:09:28 0° 84° (E) 2,333 1.4 -18.4°
